Flag for U.S.A. Weather past 2 weeks in Rapid City, South Dakota, U.S.A.

Now
68 °F

Sunny.


Feels Like: 68 °F
Forecast: 70 / 94 °F
Wind: 7 mph from South

Location: Ellsworth Air Force Base

Current Time: Jul 24, 2014 at 7:51:57 AM

Latest Report: Jul 24, 2014 at 6:58 AM


Visibility: 10 mi

Pressure: 29.79 "Hg

Humidity: 91%

Dew point: 65 °F

Location of Rapid CityLocation

Historic Weather in Rapid City — Graph

°F

Rapid City temperature yesterday

Maximum temperature yesterday: 86 °F (at 4:58 PM)
Minimum temperature yesterday: 64 °F (at 1:58 AM)
Average temperature yesterday: 75 °F

Past Weeks' High & Low Weather Summary

 TemperatureHumidityPressure
High97 °F (Jul 21, 3:58 PM)94% (Jul 10, 3:59 AM)30.32 "Hg (Jul 10, 3:59 AM)
Low47 °F (Jul 15, 5:58 AM)18% (Jul 21, 3:58 PM)29.70 "Hg (Jul 20, 1:58 AM)
Average72 °F62%29.96 "Hg
* Reported Jul 9 6:58 AM — Jul 24 5:58 AM, Rapid City, Weather by CustomWeather, © 2014

Note: Actual official high and low records may vary slightly from our data, if they occured in-between our weather recording intervals... More about our weather records

Advertising

Rapid City weather history for previous 24 hours

 ConditionsComfort  
Time TempWeatherWind HumidityBarometerVisibility
5:58 AM
Jul 24
68 °FPassing clouds.14 mph91%29.80 "Hg10 mi
4:58 AM69 °FPassing clouds.7 mph87%29.80 "Hg10 mi
3:58 AM68 °FPartly cloudy.13 mph86%29.83 "Hg10 mi
2:58 AM69 °FPassing clouds.10 mph84%29.86 "Hg10 mi
1:58 AM69 °FPassing clouds.12 mph82%29.90 "Hg10 mi
12:58 AM70 °FClear.10 mph76%29.96 "Hg10 mi
11:58 PM
Jul 23
71 °FMostly cloudy.6 mph75%29.96 "Hg10 mi
10:58 PM70 °FClear.12 mph81%29.95 "Hg10 mi
9:58 PM72 °FClear.10 mph79%29.97 "Hg10 mi
8:58 PM75 °FSunny.7 mph77%29.98 "Hg10 mi
7:58 PM79 °FSunny.10 mph67%29.99 "Hg10 mi
6:58 PM83 °FSunny.13 mph56%30.00 "Hg10 mi
5:58 PM85 °FSunny.16 mph49%30.02 "Hg10 mi
4:58 PM86 °FSunny.17 mph46%30.04 "Hg10 mi
3:58 PM85 °FSunny.17 mph50%30.07 "Hg10 mi
2:58 PM84 °FSunny.18 mph52%30.10 "Hg10 mi
1:58 PM83 °FPassing clouds.17 mph53%30.13 "Hg10 mi
12:58 PM80 °FPassing clouds.17 mph57%30.14 "Hg10 mi
11:58 AM79 °FSunny.21 mph60%30.16 "Hg10 mi
10:58 AM80 °FSunny.22 mph54%30.16 "Hg10 mi
9:58 AM81 °FSunny.17 mph47%30.16 "Hg10 mi
8:58 AM76 °FSunny.17 mph54%30.17 "Hg10 mi
7:58 AM69 °FSunny.8 mph67%30.19 "Hg10 mi
Weather by CustomWeather, © 2014

See weather overviewHow to use our weather pages